KE8WMS Weather Reports


time (UTC)temp
F
wind
direction
speed
knots
gust
knots
rain 1hr
in
rain 24hr
in
rain mn
in
humidity
%
barometer
mb
20260506112459 45 218 0.0 0.0 0.00 0.20 0.20 99 1006.0
20260506111956 45 218 0.0 0.0 0.00 0.20 0.20 99 1005.8
20260506111454 45 220 0.0 0.0 0.00 0.20 0.20 99 1005.8
20260506110951 45 220 0.0 0.0 0.00 0.20 0.20 99 1005.6
20260506110449 45 223 0.0 0.0 0.00 0.20 0.20 99 1005.7
20260506105945 45 221 0.0 0.0 0.00 0.20 0.20 99 1005.2
20260506105442 45 216 0.0 0.0 0.00 0.20 0.20 99 1004.9
20260506104939 45 225 0.0 0.0 0.00 0.20 0.20 99 1005.2
20260506104437 45 228 0.0 0.0 0.00 0.20 0.20 99 1005.3
20260506103935 45 227 0.0 0.0 0.00 0.20 0.20 99 1004.9
20260506103432 45 223 0.0 0.0 0.00 0.20 0.20 99 1004.8
20260506102929 45 232 0.0 0.9 0.00 0.20 0.20 99 1005.3
20260506102427 45 229 0.0 0.9 0.00 0.20 0.20 99 1005.6
20260506101924 45 238 0.9 0.9 0.00 0.20 0.20 99 1005.3
20260506101420 45 221 0.0 0.0 0.00 0.20 0.20 99 1005.6
20260506100918 45 233 0.0 0.0 0.00 0.20 0.20 99 1005.2
20260506100416 45 239 0.0 0.9 0.00 0.20 0.20 99 1004.9
20260506095914 45 249 0.0 0.9 0.00 0.20 0.20 99 1004.9
20260506095412 45 233 0.0 0.0 0.00 0.20 0.20 99 1004.7
20260506094908 44 221 0.0 0.0 0.00 0.20 0.20 99 1004.6
20260506094407 45 220 0.0 0.0 0.00 0.20 0.20 99 1004.8
20260506093904 45 221 0.0 0.0 0.00 0.20 0.20 99 1004.8
20260506093401 45 220 0.0 0.0 0.00 0.20 0.20 99 1005.2
20260506092859 45 224 0.0 0.0 0.00 0.20 0.20 99 1005.2
20260506092357 44 227 0.0 0.0 0.00 0.20 0.20 99 1005.4
20260506091853 45 227 0.0 0.0 0.07 0.20 0.20 99 1005.6
20260506091351 45 222 0.0 0.0 0.07 0.20 0.20 99 1005.8
20260506090848 45 225 0.0 0.0 0.00 0.19 0.19 99 1005.6
20260506090346 45 226 0.0 0.0 0.00 0.19 0.19 99 1005.5
20260506085842 45 234 0.0 0.0 0.00 0.19 0.19 99 1005.5
20260506085338 45 231 0.0 0.9 0.00 0.19 0.19 99 1005.4
20260506084835 45 219 0.0 0.0 0.00 0.19 0.19 99 1005.3
20260506084332 45 226 0.0 0.0 0.00 0.19 0.19 99 1005.0
20260506083829 45 232 0.0 0.9 0.00 0.19 0.19 99 1004.9
20260506083326 45 250 0.9 0.9 0.05 0.19 0.19 99 1005.1
20260506082824 45 209 0.0 0.0 0.05 0.19 0.19 99 1004.9
20260506082320 45 254 0.9 0.9 0.07 0.18 0.18 99 1005.0
20260506081816 45 51 2.6 2.6 0.14 0.18 0.18 99 1004.9
20260506081314 46 223 0.9 0.9 0.07 0.17 0.17 99 1005.3
20260506080812 46 280 0.9 1.7 0.12 0.16 0.16 99 1005.2
20260506080308 46 237 0.9 0.9 0.07 0.15 0.15 99 1005.4
20260506073252 46 223 0.0 0.0 0.05 0.12 0.12 99 1005.2
20260506072749 46 275 1.7 1.7 0.07 0.11 0.11 99 1005.1
20260506072246 46 227 0.9 0.9 0.12 0.11 0.11 99 1004.9
20260506071744 46 226 0.0 0.0 0.12 0.10 0.10 99 1005.0
20260506071241 46 215 0.0 0.0 0.07 0.09 0.09 99 1004.9
20260506070738 46 230 0.0 0.0 0.00 0.08 0.08 99 1004.9
20260506070235 46 230 0.0 0.0 0.05 0.08 0.08 99 1005.0
20260506062212 46 236 0.0 0.9 0.00 0.06 0.06 99 1005.0
20260506061708 46 217 0.0 0.0 0.00 0.06 0.06 99 1005.2
20260506061206 46 217 0.0 0.0 0.00 0.06 0.06 99 1005.1
20260506060704 46 217 0.0 0.0 0.00 0.06 0.06 99 1005.1
20260506060200 46 217 0.0 0.0 0.05 0.06 0.06 99 1005.0
20260506051133 46 226 0.0 0.0 0.07 0.04 0.04 99 1005.1
20260506050631 46 225 0.0 0.0 0.00 0.03 0.03 99 1005.2
20260506050128 46 217 0.0 0.0 0.05 0.03 0.03 99 1005.1
20260506045121 46 217 0.0 0.0 0.05 0.03 0.03 99 1005.1
20260506044619 46 221 0.0 0.0 0.00 0.02 0.02 99 1005.4
20260506044116 46 226 0.0 0.0 0.07 0.02 0.02 99 1005.4
20260506043613 46 223 0.0 0.0 0.07 0.02 0.02 99 1005.4
20260506043111 46 228 0.0 0.0 0.00 0.01 0.01 99 1005.4
20260506042610 46 227 0.0 0.0 0.00 0.01 0.01 99 1005.5
20260506042108 46 229 0.0 0.0 0.00 0.01 0.01 99 1005.3
20260506041606 47 225 0.0 0.0 0.05 0.01 0.01 99 1005.3
20260506041102 46 219 0.0 0.0 0.05 0.01 0.01 99 1005.6
20260506040600 46 218 0.0 0.0 0.00 0.00 0.00 99 1005.8
20260506040056 46 224 0.9 0.9 0.07 0.00 0.00 99 1005.6
20260506035553 46 221 0.0 0.0 0.07 1.16 1.16 99 1005.7
20260506035050 46 217 0.0 0.0 0.05 1.15 1.15 99 1005.9
20260506034547 47 224 0.0 0.0 0.12 1.15 1.15 99 1006.2
20260506034044 48 223 0.0 0.0 0.12 1.14 1.14 99 1006.0
20260506033542 48 216 0.0 0.0 0.05 1.13 1.13 99 1006.1
20260506033038 48 215 0.0 0.0 0.12 1.12 1.12 99 1006.0
20260506032536 48 222 0.0 0.0 0.19 1.12 1.12 99 1006.0
20260506032032 48 221 0.0 0.0 0.07 1.10 1.10 99 1006.0
20260506031530 48 226 0.0 0.0 0.05 1.09 1.09 99 1005.9
20260506031027 48 238 0.0 0.9 0.12 1.09 1.09 99 1005.8
20260506030525 48 305 1.7 1.7 0.14 1.08 1.08 99 1005.9
20260506030022 48 221 0.0 0.0 0.19 1.07 1.07 99 1006.0
20260506025519 48 220 0.0 0.0 0.17 1.06 1.06 99 1005.9
20260506025015 48 248 0.9 0.9 0.17 1.04 1.04 99 1005.8
20260506024512 48 227 0.0 0.0 0.19 1.03 1.03 99 1005.9
20260505235345 49 257 0.9 0.9 0.07 0.73 0.73 99 1003.9
20260505234842 49 257 0.9 0.9 0.07 0.73 0.73 99 1003.9
20260505234340 49 257 0.9 0.9 0.07 0.73 0.73 99 1003.9
20260505233836 49 227 0.9 0.9 0.07 0.73 0.73 99 1004.1
20260505233335 49 227 0.0 0.0 0.00 0.72 0.72 99 1004.4
20260505232832 49 21 1.7 1.7 0.00 0.72 0.72 99 1004.1
20260505232329 49 224 0.0 0.0 0.00 0.72 0.72 99 1004.3
20260505231826 49 284 0.9 0.9 0.05 0.72 0.72 99 1004.3
20260505231324 49 226 0.0 0.9 0.05 0.72 0.72 99 1004.7
20260505230822 49 223 0.0 0.0 0.07 0.71 0.71 99 1004.6
20260505230318 49 250 1.7 1.7 0.14 0.71 0.71 99 1004.4
20260505225815 49 276 0.0 0.9 0.07 0.70 0.70 99 1004.7
20260505225312 49 246 0.9 0.9 0.12 0.69 0.69 99 1004.9
20260505224807 49 49 1.7 2.6 0.35 0.68 0.68 99 1004.8
20260505224306 50 285 1.7 1.7 0.35 0.66 0.66 99 1004.7
20260505223802 49 226 0.0 0.0 0.12 0.62 0.62 99 1004.2
20260505223259 49 267 0.9 0.9 0.07 0.60 0.60 99 1004.2
20260505222755 49 311 0.9 1.7 0.12 0.60 0.60 99 1004.1
20260505222251 49 247 0.9 0.9 0.12 0.59 0.59 99 1004.4
20260505221748 49 230 0.0 0.9 0.26 0.58 0.58 99 1004.3
20260505221245 49 238 0.0 0.9 0.31 0.57 0.57 99 1003.9
20260505220742 50 205 0.9 1.7 0.12 0.54 0.54 99 1003.9
20260505220239 49 224 0.0 0.9 0.12 0.52 0.52 99 1003.8
20260505215737 49 204 0.9 0.9 0.17 0.52 0.52 99 1004.0
20260505215235 50 359 1.7 1.7 0.24 0.51 0.51 99 1003.8
20260505214733 50 21 1.7 2.6 0.26 0.49 0.49 99 1003.7
20260505214230 50 197 0.9 0.9 0.19 0.46 0.46 99 1004.0
20260505213727 51 293 1.7 2.6 0.28 0.45 0.45 99 1003.8
20260505213224 51 244 0.9 1.7 0.24 0.43 0.43 99 1003.8
20260505212720 51 293 1.7 1.7 0.12 0.40 0.40 99 1003.9
20260505212218 51 297 0.9 1.7 0.12 0.39 0.39 99 1003.8
20260505211714 51 256 0.9 0.9 0.07 0.38 0.38 99 1003.6
20260505211212 51 228 0.9 0.9 0.12 0.37 0.37 99 1003.9
20260505210708 51 243 0.9 0.9 0.12 0.36 0.36 99 1003.6
20260505210205 51 215 0.9 0.9 0.19 0.35 0.35 99 1003.6
20260505205703 51 319 1.7 1.7 0.26 0.34 0.34 98 1003.5
20260505205200 51 69 1.7 2.6 0.17 0.32 0.32 98 1004.0
20260505204657 53 17 2.6 2.6 0.17 0.30 0.30 98 1004.0
20260505204155 55 336 3.5 4.3 0.24 0.29 0.29 98 1003.7
20260505203652 57 338 1.7 1.7 0.24 0.27 0.27 98 1003.6
20260505203148 57 250 0.9 0.9 0.19 0.25 0.25 98 1003.6
20260505202644 57 228 0.9 0.9 0.12 0.23 0.23 98 1003.8
20260505202140 57 237 0.9 1.7 0.12 0.22 0.22 98 1003.5
20260505201637 57 229 0.0 0.9 0.14 0.21 0.21 98 1003.6
20260505201135 57 218 0.0 0.0 0.12 0.20 0.20 97 1003.6
20260505200633 57 221 0.0 0.0 0.17 0.19 0.19 97 1003.4
20260505200129 57 220 0.0 0.0 0.19 0.18 0.18 97 1003.5
20260505195625 57 224 0.0 0.0 0.12 0.16 0.16 97 1003.5
20260505195123 57 227 0.0 0.0 0.12 0.15 0.15 96 1003.5
20260505194620 57 203 0.9 0.9 0.19 0.14 0.14 96 1003.7
20260505194116 57 224 0.0 0.0 0.24 0.13 0.13 96 1003.8
20260505193613 57 242 0.9 1.7 0.31 0.11 0.11 95 1003.8
20260505193110 58 225 0.0 0.0 0.26 0.08 0.08 94 1004.0
20260505192609 58 216 0.0 0.0 0.07 0.05 0.05 94 1003.9
20260505192105 58 231 0.9 0.9 0.05 0.04 0.04 93 1003.8
20260505191604 58 231 0.0 0.0 0.12 0.04 0.04 92 1003.8
20260505191101 58 218 0.0 0.0 0.12 0.03 0.03 91 1003.6
20260505190556 58 224 0.0 0.0 0.12 0.02 0.02 90 1003.6
20260505190052 59 224 0.0 0.0 0.07 0.01 0.01 88 1003.8
20260505185549 59 228 0.9 0.9 0.00 0.00 0.00 86 1003.7
20260505185045 60 274 0.9 0.9 0.00 0.00 0.00 83 1003.6
20260505184542 61 164 1.7 2.6 0.00 0.00 0.00 81 1003.8
20260505184039 62 247 1.7 1.7 0.00 0.00 0.00 79 1003.6
20260505183535 62 157 2.6 4.3 0.00 0.00 0.00 77 1003.5
20260505183033 63 185 0.9 1.7 0.00 0.00 0.00 76 1003.5
20260505182529 63 227 3.5 6.1 0.00 0.00 0.00 75 1003.6
20260505182026 63 227 4.3 5.2 0.00 0.00 0.00 75 1003.8
20260505181522 64 243 1.7 2.6 0.00 0.00 0.00 75 1003.7
20260505181020 64 214 0.0 0.9 0.00 0.00 0.00 74 1003.6
20260505180515 64 217 2.6 4.3 0.00 0.00 0.00 74 1003.9
20260505180014 65 152 0.9 1.7 0.00 0.00 0.00 73 1003.7
20260505175508 65 167 3.5 4.3 0.00 0.00 0.00 73 1003.8
20260505175006 64 251 2.6 2.6 0.00 0.00 0.00 74 1003.7
20260505174503 64 222 0.9 0.9 0.00 0.00 0.00 74 1003.4
20260505173959 64 220 1.7 2.6 0.00 0.00 0.00 72 1003.5
20260505173455 64 166 2.6 4.3 0.00 0.00 0.00 73 1003.6
20260505172953 64 195 0.9 0.9 0.00 0.00 0.00 74 1003.5
20260505172451 64 236 2.6 2.6 0.00 0.00 0.00 74 1003.6
20260505171950 64 230 0.9 1.7 0.00 0.00 0.00 73 1003.6
20260505171447 64 231 3.5 5.2 0.00 0.00 0.00 74 1003.6
20260505170944 64 207 0.9 1.7 0.00 0.00 0.00 74 1003.6
20260505170440 64 229 3.5 5.2 0.00 0.00 0.00 73 1003.8
20260505165936 64 256 0.9 0.9 0.00 0.00 0.00 74 1003.4
20260505165432 64 224 0.0 0.9 0.00 0.00 0.00 75 1003.3
20260505164927 63 245 1.7 1.7 0.00 0.00 0.00 75 1003.5
20260505164424 63 223 0.0 0.9 0.00 0.00 0.00 75 1003.6
20260505163922 63 285 1.7 2.6 0.00 0.00 0.00 74 1003.5
20260505163421 63 355 0.9 2.6 0.00 0.00 0.00 74 1003.4
20260505162920 64 223 0.9 1.7 0.00 0.00 0.00 73 1003.5
20260505162415 65 230 0.9 1.7 0.00 0.00 0.00 71 1003.5
20260505161912 66 220 0.9 0.9 0.00 0.00 0.00 67 1003.6
20260505161409 66 225 0.9 1.7 0.00 0.00 0.00 66 1003.5
20260505160906 67 221 1.7 1.7 0.00 0.00 0.00 66 1003.3
20260505160404 67 214 1.7 2.6 0.00 0.00 0.00 66 1003.4
20260505153343 68 322 3.5 6.1 0.00 0.00 0.00 63 1002.6
20260505152841 68 245 3.5 6.1 0.00 0.00 0.00 63 1002.6
20260505152338 68 269 3.5 5.2 0.00 0.00 0.00 63 1002.1
20260505151837 68 237 2.6 4.3 0.00 0.00 0.00 64 1002.1
20260505151334 69 207 3.5 4.3 0.00 0.00 0.00 62 1001.9
20260505150831 68 186 3.5 4.3 0.00 0.00 0.00 63 1001.9
20260505150328 68 181 2.6 5.2 0.00 0.00 0.00 64 1002.0
20260505140252 66 268 2.6 4.3 0.00 0.00 0.00 68 1002.0
20260505130216 63 211 2.6 4.3 0.00 0.00 0.00 74 1001.8
20260505124706 63 160 5.2 7.8 0.00 0.00 0.00 73 1001.8
20260505124203 62 216 5.2 7.8 0.00 0.00 0.00 73 1001.6
20260505123659 62 209 2.6 2.6 0.00 0.00 0.00 73 1001.7
20260505123156 62 228 3.5 5.2 0.00 0.00 0.00 72 1001.4
20260505122653 62 213 0.9 0.9 0.00 0.00 0.00 73 1001.6
20260505122149 62 152 4.3 6.1 0.00 0.00 0.00 72 1001.7
20260505121646 62 211 4.3 7.0 0.00 0.00 0.00 72 1001.6
20260505121143 62 207 2.6 2.6 0.00 0.00 0.00 72 1001.3
20260505120639 62 204 1.7 1.7 0.00 0.00 0.00 72 1001.1
20260505120135 62 176 0.9 1.7 0.00 0.00 0.00 72 1000.9
20260505115629 62 167 2.6 4.3 0.00 0.00 0.00 72 1000.6
20260505115127 62 207 1.7 1.7 0.00 0.00 0.00 72 1000.3
20260505114624 63 199 1.7 2.6 0.00 0.00 0.00 71 1000.5
20260505114120 63 186 2.6 4.3 0.00 0.00 0.00 71 1000.0
20260505113617 63 245 5.2 6.1 0.00 0.00 0.00 69 1000.4
20260505113114 63 236 3.5 5.2 0.00 0.00 0.00 69 1000.3